Showing default

AL YAH 3, 43174

Orbit data source: Space-Track

AL YAH 3, 43174 is a payload satellite owned by Yahsat Brasil (AE) in GEO that was launched on Thu, 25 Jan 2018 UTC via an ARIANE 5ECA launch vehicle from the French Guiana (FRGUI). Payload-class satellites include a variety of spacecraft equipped with specific instruments for various scientific and technological missions. These include communications satellites like Starlink; space stations such as the ISS; scientific satellites like the Hubble; Earth observation satellites from companies like Planet Labs, Umbra, and HawkEye 360; GPS; miniature CubeSats for education and research; and military/defense satellites.

Not visible in the next 10 days
Identifier
43174, 2018-012A
Orbit
GEO
Country
Flag of AEAE / UAE
Related business
Manufacturer
OATK SSG
Mission
Operational Commercial Communications
Bus & Motor
STAR-2.3?, IHI BT-4
Mass
3,795 kg wet, ~2,500 kg dry
Launch date (UTC)
2018-01-25 (8 years ago)
Launch vehicle
ARIANE 5ECA
Launch site
French Guiana (FRGUI)
Object type
Payload
Rocket body
Debris
Shape & HBR
Box + 2 Pan, 9.0 m
Radar Cross Section
20.597 m², Large (>1 m²)

Expand to show TLE details & history
Last TLE update: 14 hours ago

TLE from 14 hours ago
0 AL YAH 3
1 43174U 18012A   25306.39135454 -.00000142  00000-0  00000+0 0  9998
2 43174   0.9611  85.8809 0003248 145.9529 290.9072  1.00270743 28573
Epoch: 2025-11-02T09:23Z
TLE epoch observation values (Epoch: 2025-11-02T09:23:33.032Z)
Latitude
0.91389°
Longitude
-20.13009°
Altitude
35,781.34 km
Speed
3.075 km/s
True Right ascension
10h 50m 39s
True Declination
0° 54' 47"
Sunlit
Object was in daylight at epoch
Visualization orbit readout
Latitude
Unknown
Longitude
Unknown
Altitude
Unknown
Speed
Unknown
Apparent Right ascension
Unknown
Apparent Declination
Unknown
Sunlit
N/A
Visualization observer readout
Local Sidereal Time
18:56:54
Azimuth
Unknown
Elevation
Unknown
Doppler factor
Unknown
Orbital elements
Apogee altitude
35,801.653 km
Perigee altitude
35,774.261 km
Semi-major axis
42,166.094 km
Eccentricity
0.00032
Inclination
0.9611°
RAAN
85.8809°
Arg. of periapsis
145.9529°
True anomaly
290.87243°
Mean anomaly
290.9072°
Eccentric anomaly
290.88981°
Mean motion
0.25067 °/min
Orbital period
1,436.17 mins
BSTAR
0
Loading maneuver chart data...
Computing Atmospheric mass density...
Loading historical data...
Loading historical data...
Loading historical data...
Loading historical data...
Loading historical data...
Loading historical data...
Loading historical data...
Other satellites on launch #12 in the year 2018 (2018-01-25 UTC)

Documentation

Showing up to 5 results
|